Regional Weather Roundup
Issued by NWS

Home | Current Version | Previous Version | Graphics & Text | Print | Product List | Glossary On
Versions: 1 2 3 4 5 6 7 8 9 10 11 12 13 14 15 16 17 18 19 20 21 22 23 24 25 26 27 28 29 30 31 32 33 34 35 36 37 38 39 40 41 42 43 44 45 46 47 48 49 50
000
ASUS43 KDMX 180901
RWRIA

WEATHER ROUNDUP FOR IOWA
NATIONAL WEATHER SERVICE DES MOINES IA
300 AM CST SAT NOV 18 2017

NOTE: "FAIR" INDICATES FEW OR NO CLOUDS BELOW 12,000 FEET WITH NO
SIGNIFICANT WEATHER AND/OR OBSTRUCTIONS TO VISIBILITY.

* - THESE STATIONS ARE NOT NWS STATIONS...THUS NOT UNDER NWS
QUALITY CONTROL.  THEY ALSO DO NOT REPORT WEATHER SUCH
AS PRECIPITATION OR FOG.

IAZ001>003-012>014-020>022-031>034-043>046-181000-
   NORTHWEST IOWA

CITY           SKY/WX    TMP DP  RH WIND       PRES   REMARKS
CARROLL *      CLOUDY    39  37  93 N20G26    29.61F FOG     WCI  30
CHEROKEE *     CLOUDY    36  35  96 N12       29.70R WCI  27
DENISON *      CLOUDY    39  37  93 N18G28    29.65R WCI  30
LE MARS *      CLOUDY    36  34  93 MISG      29.74R
ORANGE CITY *  CLOUDY    36  32  87 N12G18    29.74R WCI  27
SHELDON *      CLOUDY    32  30  93 N14       29.72R WCI  22
SIOUX CITY     MOCLDY    37  35  92 N13       29.73R WCI  29
SPENCER        CLOUDY    35  31  85 N15       29.70R WCI  25
STORM LAKE *   CLOUDY    36  34  93 N16       29.66S WCI  26
$$

IAZ055>058-069>071-079>083-090>094-181000-
   SOUTHWEST IOWA

CITY           SKY/WX    TMP DP  RH WIND       PRES   REMARKS
ATLANTIC *     LGT RAIN  41  41 100 N10       29.62R
AUDUBON *      LGT RAIN  39  37  93 N20G25    29.61R WCI  30
CLARINDA *     CLOUDY    45  45 100 NE15        N/A
COUNCIL BLFS * LGT RAIN  41  41 100 N13       29.64R
CRESTON *      CLOUDY    43  41  93 NE21G26   29.56F FOG
HARLAN  *      CLOUDY    41  39  93 N17G24    29.66R
LAMONI         LGT RAIN  46  46 100 N20       29.51F FOG
RED OAK *      CLOUDY    43  41  93 N17       29.60R
SHENANDOAH *   CLOUDY    45  41  87 N12G20    29.62R
$$

IAZ047>049-059>061-072>074-084-181000-
   CENTRAL IOWA

CITY           SKY/WX    TMP DP  RH WIND       PRES   REMARKS
AMES           LGT RAIN  40  40 100 N17       29.58S WCI  31
ANKENY *       LGT RAIN  41  39  93 N12G23    29.59R
BOONE *        HVY RAIN  39  37  93 N21G28    29.56F WCI  29
CHARITON *     CLOUDY    43  43 100 N10G16    29.56R FOG
DES MOINES     CLOUDY    43  40  89 N8        29.61R
GRINNELL*      CLOUDY    40  39  97 N13G24    29.54F WCI  32
KNOXVILLE *    CLOUDY    43  41  93 N17       29.56R
MARSHALLTOWN   CLOUDY    40  38  93 N17G25    29.56F WCI  31
NEWTON *       CLOUDY    41  39  93 NE15G23   29.55F
PELLA *        CLOUDY    42  40  93 N8        29.59R
PERRY *        LGT RAIN  40  39  97 N18G26    29.59S WCI  31
$$

IAZ004>006-015-016-023>025-035-036-181000-
   NORTH CENTRAL IOWA

CITY           SKY/WX    TMP DP  RH WIND       PRES   REMARKS
ALGONA *       CLOUDY    37  37 100 N14G22    29.67R FOG     WCI  29
CLARION *      CLOUDY    37  37 100 N12G21    29.64R WCI  30
ESTHERVILLE    CLOUDY    34  33  96 N15       29.70R WCI  24
FORT DODGE *   LGT RAIN  37  36  96 N16G22    29.64S FOG     WCI  28
MASON CITY     CLOUDY    36  35  96 N17       29.64S FOG     WCI  26
FOREST CITY *  CLOUDY    36  36 100 N15       29.64S FOG     WCI  26
WEBSTER CITY * LGT RAIN  37  37 100 N15G22    29.61F WCI  28
IOWA FALLS *   LGT RAIN  39  37  94 N10       29.62R WCI  32
$$

IAZ007>011-017>019-026>030-037>042-050>054-066-181000-
   NORTHEAST IOWA

CITY           SKY/WX    TMP DP  RH WIND       PRES   REMARKS
CEDAR RAPIDS   CLOUDY    41  40  96 N14       29.55S
CHARLES CITY * LGT RAIN  37  37 100 N10       29.62R WCI  30
CLINTON *      CLOUDY    42  42 100 N9        29.53F FOG
DECORAH *      LGT RAIN  37  37 100 N6G13     29.58F WCI  33
DUBUQUE        CLOUDY    38  37  97 N13       29.54F WCI  30
MONTICELLO *   CLOUDY    39  39 100 VRB7G14   29.56S WCI  34
OELWEIN *      CLOUDY    39  37  93 N12G17    29.57F WCI  32
WATERLOO       CLOUDY    38  36  92 N10       29.58F WCI  31
$$

IAZ064-065-067-068-078-181000-
   EAST CENTRAL IOWA

CITY           SKY/WX    TMP DP  RH WIND       PRES   REMARKS
DAVENPORT      CLOUDY    43  42  97 N12       29.54S FOG
IOWA CITY      CLOUDY    45  42  89 N12G22    29.55S
MT. PLEASANT * CLOUDY    45  45 100 N12       29.51R FOG
MUSCATINE *    CLOUDY    46  45  93 N12       29.52F FOG
QUAD CITIES    CLOUDY    46  43  89 N3        29.51F FOG
$$

IAZ062-063-075>077-085>089-095>099-181000-
   SOUTHEAST IOWA

CITY           SKY/WX    TMP DP  RH WIND       PRES   REMARKS
BURLINGTON     CLOUDY    49  49 100 N9        29.48R FOG
FAIRFIELD *    CLOUDY    45  45 100 N15       29.52R FOG
FORT MADISON * CLOUDY    48  48 100 N8        29.47F FOG
KEOKUK *       CLOUDY    52  50  93 MISG      29.45F FOG
OSKALOOSA *    CLOUDY    41  40  97 N14       29.54R FOG
OTTUMWA        CLOUDY    45  42  89 N13       29.54R FOG
WASHINGTON *   CLOUDY    45  45 100 N15       29.52F FOG
$$

ABBREVIATIONS USED IN REMARKS
   TC - TEMPERATURES IN CELSIUS
  WCI - WIND CHILL INDEX
   HX - HEAT INDEX
  VSB - VISIBILITY
$$





USA.gov is the U.S. government's official web portal to all federal, state and local government web resources and services.